Flag Weather past 2 weeks in Greensboro, North Carolina, U.S.A.

Now
54 °F

Partly sunny.


Feels Like: 53 °F
Forecast: 48 / 60 °F
Wind: 6 mph from East

Location: Piedmont Triad International Airport

Current Time: Nov 25, 2014 at 5:31:20 PM

Latest Report: Nov 25, 2014 at 4:54 PM


Visibility: 10 mi

Pressure: 30.03 "Hg

Humidity: 57%

Dew point: 39 °F

Location of GreensboroLocation

Historic Weather in Greensboro — Graph

°F

Greensboro temperature yesterday

Maximum temperature yesterday: 72 °F (at 2:54 PM)
Minimum temperature yesterday: 59 °F (at 5:54 AM)
Average temperature yesterday: 64 °F

Past Weeks' High & Low Weather Summary

 TemperatureHumidityPressure
High73 °F (Nov 12, 1:54 PM)100% (Nov 17, 1:00 PM)30.57 "Hg (Nov 17, 1:00 PM)
Low18 °F (Nov 19, 3:54 AM)19% (Nov 21, 1:54 PM)29.60 "Hg (Nov 17, 1:54 PM)
Average44 °F57%30.11 "Hg
* Reported Nov 10 4:54 PM — Nov 25 4:54 PM, Greensboro, Weather by CustomWeather, © 2014

Note: Actual official high and low records may vary slightly from our data, if they occured in-between our weather recording intervals... More about our weather records

Advertising

Greensboro weather history for previous 24 hours

 ConditionsComfort  
Time TempWeatherWind HumidityBarometerVisibility
4:54 PM
Nov 25
54 °FPartly sunny.6 mph57%30.03 "Hg10 mi
3:54 PM57 °FPartly sunny.3 mph41%30.02 "Hg10 mi
2:54 PM58 °FPartly sunny.5 mph43%30.01 "Hg10 mi
1:54 PM59 °FBroken clouds.7 mph48%30.02 "Hg10 mi
12:54 PM57 °FMostly cloudy.6 mph53%30.04 "Hg10 mi
11:54 AM57 °FCloudy.6 mph53%30.05 "Hg10 mi
10:54 AM56 °FCloudy.6 mph51%30.06 "Hg10 mi
9:54 AM57 °FMostly cloudy.3 mph51%30.06 "Hg10 mi
8:54 AM57 °FMostly cloudy.5 mph51%30.03 "Hg10 mi
7:54 AM57 °FOvercast.5 mph53%29.99 "Hg10 mi
6:54 AM58 °FOvercast.3 mph56%29.97 "Hg10 mi
5:54 AM58 °FPassing clouds.8 mph58%29.95 "Hg10 mi
4:54 AM62 °FPartly cloudy.7 mph90%29.90 "Hg10 mi
3:54 AM63 °FMostly cloudy.6 mph93%29.90 "Hg10 mi
2:54 AM63 °FMostly cloudy.6 mph93%29.90 "Hg10 mi
1:54 AM63 °FMostly cloudy.6 mph93%29.88 "Hg10 mi
12:54 AM64 °FPassing clouds.10 mph90%29.86 "Hg10 mi
11:54 PM
Nov 24
64 °FPassing clouds.15 mph87%29.87 "Hg10 mi
10:54 PM64 °FPassing clouds.12 mph84%29.86 "Hg10 mi
9:54 PM65 °FPartly cloudy.15 mph85%29.85 "Hg10 mi
8:54 PM65 °FPassing clouds.13 mph85%29.83 "Hg10 mi
7:54 PM64 °FPassing clouds.13 mph81%29.84 "Hg10 mi
6:54 PM64 °FPassing clouds.8 mph78%29.78 "Hg10 mi
5:54 PM66 °FPassing clouds.9 mph63%29.77 "Hg10 mi
Weather by CustomWeather, © 2014

See weather overviewHow to use our weather pages